Saint Bonnet de Bellac- Haute Vienne - France
Donnes mto: lundi, 03/09/2012
Date Horaire Temp. E. Hum. E. P.atmo. Pluie Vent Direction Direction Ensoleilleme Solaire P. de rose Temp au vent Rafales
03/09/2012 00:00 17,6 C 71 % 1025,4 hPa 0,0 mm 0,0 km/h (0 Bft) N-NE 22 0 min 0 W/m 12,3 C 17,6 C 0,0 km/h (0 Bft)
03/09/2012 00:10 17,4 C 72 % 1025,5 hPa 0,0 mm 1,4 km/h (1 Bft) N-NE 22 0 min 0 W/m 12,3 C 17,4 C 4,0 km/h (1 Bft)
03/09/2012 00:20 17,3 C 72 % 1025,4 hPa 0,0 mm 1,8 km/h (1 Bft) N-NE 22 0 min 0 W/m 12,2 C 17,3 C 6,1 km/h (2 Bft)
03/09/2012 00:30 17,2 C 72 % 1025,4 hPa 0,0 mm 0,7 km/h (0 Bft) N-NE 22 0 min 0 W/m 12,1 C 17,2 C 4,0 km/h (1 Bft)
03/09/2012 00:40 17,2 C 73 % 1025,3 hPa 0,0 mm 0,0 km/h (0 Bft) N 360 0 min 0 W/m 12,3 C 17,2 C 0,0 km/h (0 Bft)
03/09/2012 00:50 17,1 C 73 % 1025,3 hPa 0,0 mm 0,0 km/h (0 Bft) N 360 0 min 0 W/m 12,2 C 17,1 C 0,0 km/h (0 Bft)
03/09/2012 01:00 17,1 C 73 % 1025,2 hPa 0,0 mm 1,4 km/h (1 Bft) NE 45 0 min 0 W/m 12,2 C 17,1 C 3,2 km/h (1 Bft)
03/09/2012 01:10 16,9 C 73 % 1025,1 hPa 0,0 mm 0,0 km/h (0 Bft) N-NE 22 0 min 0 W/m 12,0 C 16,9 C 0,0 km/h (0 Bft)
03/09/2012 01:20 16,6 C 73 % 1025,1 hPa 0,0 mm 0,0 km/h (0 Bft) N 360 0 min 0 W/m 11,7 C 16,6 C 3,6 km/h (1 Bft)
03/09/2012 01:30 16,3 C 74 % 1025,1 hPa 0,0 mm 0,0 km/h (0 Bft) N 360 0 min 0 W/m 11,7 C 16,3 C 0,0 km/h (0 Bft)
03/09/2012 01:40 15,9 C 75 % 1025,0 hPa 0,0 mm 0,0 km/h (0 Bft) N 360 0 min 0 W/m 11,5 C 15,9 C 0,0 km/h (0 Bft)
03/09/2012 01:50 15,8 C 76 % 1025,0 hPa 0,0 mm 0,0 km/h (0 Bft) N-NE 22 0 min 0 W/m 11,6 C 15,8 C 0,0 km/h (0 Bft)
03/09/2012 02:00 15,9 C 77 % 1025,0 hPa 0,0 mm 0,0 km/h (0 Bft) N 360 0 min 0 W/m 11,9 C 15,9 C 0,0 km/h (0 Bft)
03/09/2012 02:10 16,1 C 77 % 1025,0 hPa 0,0 mm 0,4 km/h (0 Bft) N 360 0 min 0 W/m 12,1 C 16,1 C 0,4 km/h (0 Bft)
03/09/2012 02:20 16,3 C 77 % 1024,9 hPa 0,0 mm 1,4 km/h (1 Bft) N 360 0 min 0 W/m 12,3 C 16,3 C 4,3 km/h (1 Bft)
03/09/2012 02:30 16,4 C 77 % 1024,8 hPa 0,0 mm 1,1 km/h (1 Bft) NO 315 0 min 0 W/m 12,4 C 16,4 C 6,8 km/h (2 Bft)
03/09/2012 02:40 16,4 C 77 % 1024,7 hPa 0,0 mm 1,1 km/h (1 Bft) N 360 0 min 0 W/m 12,4 C 16,4 C 1,1 km/h (1 Bft)
03/09/2012 02:50 16,4 C 77 % 1024,6 hPa 0,0 mm 1,4 km/h (1 Bft) N-NE 22 0 min 0 W/m 12,4 C 16,4 C 4,0 km/h (1 Bft)
03/09/2012 03:02 16,2 C 77 % 1024,7 hPa 0,0 mm 1,4 km/h (1 Bft) NE 45 0 min 0 W/m 12,2 C 16,2 C 4,0 km/h (1 Bft)
03/09/2012 03:10 15,9 C 77 % 1024,6 hPa 0,0 mm 0,7 km/h (0 Bft) N 360 0 min 0 W/m 11,9 C 15,9 C 3,6 km/h (1 Bft)
03/09/2012 03:20 15,6 C 78 % 1024,6 hPa 0,0 mm 0,0 km/h (0 Bft) N-NE 22 0 min 0 W/m 11,8 C 15,6 C 0,0 km/h (0 Bft)
03/09/2012 03:30 15,2 C 78 % 1024,6 hPa 0,0 mm 0,7 km/h (0 Bft) N 360 0 min 0 W/m 11,4 C 15,2 C 0,7 km/h (0 Bft)
03/09/2012 03:40 14,8 C 79 % 1024,5 hPa 0,0 mm 0,0 km/h (0 Bft) N 360 0 min 0 W/m 11,2 C 14,8 C 0,0 km/h (0 Bft)
03/09/2012 03:50 14,5 C 79 % 1024,5 hPa 0,0 mm 0,0 km/h (0 Bft) N 360 0 min 0 W/m 10,9 C 14,5 C 0,0 km/h (0 Bft)
03/09/2012 04:00 14,3 C 81 % 1024,4 hPa 0,0 mm 0,0 km/h (0 Bft) N 360 0 min 0 W/m 11,1 C 14,3 C 0,0 km/h (0 Bft)
03/09/2012 04:10 14,1 C 81 % 1024,4 hPa 0,0 mm 0,7 km/h (0 Bft) N-NE 22 0 min 0 W/m 10,9 C 14,1 C 4,0 km/h (1 Bft)
03/09/2012 04:20 13,8 C 82 % 1024,5 hPa 0,0 mm 1,4 km/h (1 Bft) N-NO 337 0 min 0 W/m 10,8 C 13,8 C 1,4 km/h (1 Bft)
03/09/2012 04:30 13,7 C 82 % 1024,5 hPa 0,0 mm 0,0 km/h (0 Bft) N-NE 22 0 min 0 W/m 10,7 C 13,7 C 0,0 km/h (0 Bft)
03/09/2012 04:40 13,5 C 83 % 1024,4 hPa 0,0 mm 0,0 km/h (0 Bft) N-NO 337 0 min 0 W/m 10,7 C 13,5 C 0,0 km/h (0 Bft)
03/09/2012 04:50 13,4 C 83 % 1024,5 hPa 0,0 mm 1,4 km/h (1 Bft) N-NO 337 0 min 0 W/m 10,6 C 13,4 C 1,4 km/h (1 Bft)
03/09/2012 05:00 13,3 C 84 % 1024,4 hPa 0,0 mm 0,4 km/h (0 Bft) N-NE 22 0 min 0 W/m 10,7 C 13,3 C 0,4 km/h (0 Bft)
03/09/2012 05:10 13,1 C 84 % 1024,4 hPa 0,0 mm 0,7 km/h (0 Bft) N-NO 337 0 min 0 W/m 10,5 C 13,1 C 0,7 km/h (0 Bft)
03/09/2012 05:20 12,9 C 85 % 1024,3 hPa 0,0 mm 1,1 km/h (1 Bft) N-NO 337 0 min 0 W/m 10,4 C 12,9 C 1,1 km/h (1 Bft)
03/09/2012 05:30 12,8 C 85 % 1024,4 hPa 0,0 mm 0,0 km/h (0 Bft) N-NE 22 0 min 0 W/m 10,3 C 12,8 C 0,0 km/h (0 Bft)
03/09/2012 05:40 12,6 C 85 % 1024,2 hPa 0,0 mm 0,0 km/h (0 Bft) N-NO 337 0 min 0 W/m 10,1 C 12,6 C 0,0 km/h (0 Bft)
03/09/2012 05:50 12,4 C 85 % 1024,2 hPa 0,0 mm 0,0 km/h (0 Bft) N 360 0 min 0 W/m 9,9 C 12,4 C 0,0 km/h (0 Bft)
03/09/2012 06:00 12,3 C 85 % 1024,2 hPa 0,0 mm 0,0 km/h (0 Bft) N 360 0 min 0 W/m 9,9 C 12,3 C 0,0 km/h (0 Bft)
03/09/2012 06:10 12,2 C 86 % 1024,2 hPa 0,0 mm 0,4 km/h (0 Bft) N-NO 337 0 min 0 W/m 9,9 C 12,2 C 0,4 km/h (0 Bft)
03/09/2012 06:20 11,9 C 86 % 1024,2 hPa 0,0 mm 0,0 km/h (0 Bft) N-NE 22 0 min 0 W/m 9,6 C 11,9 C 0,0 km/h (0 Bft)
03/09/2012 06:30 11,8 C 86 % 1024,0 hPa 0,0 mm 0,0 km/h (0 Bft) N-NE 22 0 min 0 W/m 9,5 C 11,8 C 0,0 km/h (0 Bft)
03/09/2012 06:40 11,5 C 86 % 1024,1 hPa 0,0 mm 0,0 km/h (0 Bft) N-NE 22 0 min 0 W/m 9,2 C 11,5 C 0,0 km/h (0 Bft)
03/09/2012 06:50 11,2 C 86 % 1024,2 hPa 0,0 mm 0,0 km/h (0 Bft) N-NE 22 0 min 0 W/m 8,9 C 11,2 C 0,0 km/h (0 Bft)
03/09/2012 07:00 11,1 C 86 % 1024,1 hPa 0,0 mm 0,0 km/h (0 Bft) N-NO 337 0 min 0 W/m 8,8 C 11,1 C 0,0 km/h (0 Bft)
03/09/2012 07:10 10,9 C 87 % 1024,1 hPa 0,0 mm 0,0 km/h (0 Bft) N-NO 337 0 min 0 W/m 8,8 C 10,9 C 0,0 km/h (0 Bft)
03/09/2012 07:20 10,9 C 87 % 1024,1 hPa 0,0 mm 0,0 km/h (0 Bft) N-NO 337 0 min 0 W/m 8,8 C 10,9 C 0,0 km/h (0 Bft)
03/09/2012 07:30 10,9 C 88 % 1024,1 hPa 0,0 mm 0,0 km/h (0 Bft) N-NO 337 0 min 0 W/m 9,0 C 10,9 C 0,0 km/h (0 Bft)
03/09/2012 07:40 10,8 C 87 % 1024,2 hPa 0,0 mm 0,0 km/h (0 Bft) N-NO 337 0 min 0 W/m 8,7 C 10,8 C 0,0 km/h (0 Bft)
03/09/2012 07:50 10,8 C 87 % 1024,3 hPa 0,0 mm 0,7 km/h (0 Bft) NO 315 0 min 0 W/m 8,7 C 10,8 C 4,0 km/h (1 Bft)
03/09/2012 08:00 10,8 C 88 % 1024,2 hPa 0,0 mm 0,0 km/h (0 Bft) NO 315 0 min 0 W/m 8,9 C 10,8 C 0,0 km/h (0 Bft)
03/09/2012 08:10 11,0 C 89 % 1024,1 hPa 0,0 mm 0,0 km/h (0 Bft) N-NO 337 0 min 0 W/m 9,3 C 11,0 C 0,0 km/h (0 Bft)
03/09/2012 08:20 11,3 C 89 % 1024,0 hPa 0,0 mm 0,0 km/h (0 Bft) N-NO 337 0 min 0 W/m 9,6 C 11,3 C 0,0 km/h (0 Bft)
03/09/2012 08:30 11,8 C 90 % 1024,0 hPa 0,0 mm 0,0 km/h (0 Bft) N-NE 22 0 min 0 W/m 10,2 C 11,8 C 0,0 km/h (0 Bft)
03/09/2012 08:40 12,4 C 90 % 1023,9 hPa 0,0 mm 0,0 km/h (0 Bft) N-NE 22 0 min 0 W/m 10,8 C 12,4 C 0,0 km/h (0 Bft)
03/09/2012 08:50 12,9 C 90 % 1024,0 hPa 0,0 mm 0,4 km/h (0 Bft) N-NO 337 0 min 0 W/m 11,3 C 12,9 C 3,6 km/h (1 Bft)
03/09/2012 09:00 13,7 C 90 % 1023,9 hPa 0,0 mm 1,1 km/h (1 Bft) N-NO 337 0 min 0 W/m 12,1 C 13,7 C 2,9 km/h (1 Bft)
03/09/2012 09:10 14,4 C 88 % 1023,9 hPa 0,0 mm 0,0 km/h (0 Bft) N-NE 22 0 min 0 W/m 12,4 C 14,4 C 0,0 km/h (0 Bft)
03/09/2012 09:20 15,1 C 85 % 1023,8 hPa 0,0 mm 1,1 km/h (1 Bft) N 360 0 min 0 W/m 12,6 C 15,1 C 1,1 km/h (1 Bft)
03/09/2012 09:30 15,6 C 82 % 1023,8 hPa 0,0 mm 1,8 km/h (1 Bft) N-NE 22 0 min 0 W/m 12,5 C 15,6 C 4,0 km/h (1 Bft)
03/09/2012 09:40 16,2 C 80 % 1023,7 hPa 0,0 mm 1,1 km/h (1 Bft) N-NE 22 0 min 0 W/m 12,7 C 16,2 C 4,0 km/h (1 Bft)
03/09/2012 09:50 16,9 C 78 % 1023,8 hPa 0,0 mm 2,2 km/h (1 Bft) N-NO 337 0 min 0 W/m 13,0 C 16,9 C 7,9 km/h (2 Bft)
03/09/2012 10:00 17,6 C 75 % 1023,9 hPa 0,0 mm 1,8 km/h (1 Bft) NE 45 0 min 0 W/m 13,1 C 17,6 C 4,3 km/h (1 Bft)
03/09/2012 10:10 18,4 C 73 % 1024,0 hPa 0,0 mm 4,3 km/h (1 Bft) NE 45 0 min 0 W/m 13,5 C 18,4 C 8,6 km/h (2 Bft)
03/09/2012 10:20 18,9 C 70 % 1024,1 hPa 0,0 mm 4,3 km/h (1 Bft) N-NE 22 0 min 0 W/m 13,3 C 18,9 C 4,3 km/h (1 Bft)
03/09/2012 10:30 19,3 C 69 % 1024,0 hPa 0,0 mm 1,1 km/h (1 Bft) NO 315 0 min 0 W/m 13,5 C 19,3 C 7,2 km/h (2 Bft)
03/09/2012 10:40 19,8 C 68 % 1024,1 hPa 0,0 mm 3,6 km/h (1 Bft) N-NE 22 0 min 0 W/m 13,7 C 19,8 C 3,6 km/h (1 Bft)
03/09/2012 10:50 20,4 C 66 % 1024,1 hPa 0,0 mm 7,9 km/h (2 Bft) N-NE 22 0 min 0 W/m 13,8 C 20,4 C 12,2 km/h (2 Bft)
03/09/2012 11:00 20,6 C 64 % 1023,9 hPa 0,0 mm 7,2 km/h (2 Bft) N-NE 22 0 min 0 W/m 13,5 C 20,6 C 13,7 km/h (3 Bft)
03/09/2012 11:10 20,9 C 63 % 1024,0 hPa 0,0 mm 3,2 km/h (1 Bft) E-NE 67 0 min 0 W/m 13,6 C 20,9 C 7,9 km/h (2 Bft)
03/09/2012 11:20 21,3 C 62 % 1024,1 hPa 0,0 mm 4,7 km/h (1 Bft) N-NE 22 0 min 0 W/m 13,7 C 21,3 C 11,2 km/h (2 Bft)
03/09/2012 11:30 21,4 C 61 % 1024,0 hPa 0,0 mm 0,7 km/h (0 Bft) N 360 0 min 0 W/m 13,6 C 21,4 C 3,6 km/h (1 Bft)
03/09/2012 11:40 22,0 C 60 % 1023,9 hPa 0,0 mm 7,2 km/h (2 Bft) N-NE 22 0 min 0 W/m 13,9 C 22,0 C 11,5 km/h (2 Bft)
03/09/2012 11:50 22,2 C 59 % 1023,9 hPa 0,0 mm 6,8 km/h (2 Bft) N 360 0 min 0 W/m 13,8 C 22,2 C 15,5 km/h (3 Bft)
03/09/2012 12:00 22,8 C 57 % 1024,0 hPa 0,0 mm 5,8 km/h (2 Bft) N-NE 22 0 min 0 W/m 13,8 C 22,8 C 10,8 km/h (2 Bft)
03/09/2012 12:10 23,0 C 56 % 1023,9 hPa 0,0 mm 3,2 km/h (1 Bft) NE 45 0 min 0 W/m 13,7 C 23,0 C 3,2 km/h (1 Bft)
03/09/2012 12:20 23,2 C 53 % 1023,8 hPa 0,0 mm 11,5 km/h (2 Bft) NE 45 0 min 0 W/m 13,1 C 23,2 C 11,5 km/h (2 Bft)
03/09/2012 12:30 23,1 C 52 % 1023,7 hPa 0,0 mm 6,8 km/h (2 Bft) N 360 0 min 0 W/m 12,7 C 23,1 C 11,9 km/h (2 Bft)
03/09/2012 12:40 23,4 C 52 % 1023,7 hPa 0,0 mm 5,8 km/h (2 Bft) N-NO 337 0 min 0 W/m 13,0 C 23,4 C 10,1 km/h (2 Bft)
03/09/2012 12:50 23,6 C 52 % 1023,7 hPa 0,0 mm 9,7 km/h (2 Bft) N 360 0 min 0 W/m 13,2 C 23,6 C 18,7 km/h (3 Bft)
03/09/2012 13:00 23,6 C 52 % 1023,6 hPa 0,0 mm 7,6 km/h (2 Bft) N-NE 22 0 min 0 W/m 13,2 C 23,6 C 15,5 km/h (3 Bft)
03/09/2012 13:10 23,3 C 52 % 1023,5 hPa 0,0 mm 1,8 km/h (1 Bft) NE 45 0 min 0 W/m 12,9 C 23,3 C 1,8 km/h (1 Bft)
03/09/2012 13:20 23,0 C 53 % 1023,3 hPa 0,0 mm 6,5 km/h (2 Bft) NE 45 0 min 0 W/m 12,9 C 23,0 C 13,7 km/h (3 Bft)
03/09/2012 13:30 22,8 C 54 % 1023,3 hPa 0,0 mm 4,3 km/h (1 Bft) NE 45 0 min 0 W/m 13,0 C 22,8 C 4,3 km/h (1 Bft)
_ Min-Heure 08:00 13:10 13:30 - 09:10 - - - - 07:50 08:00 09:10
Minimum _ 10,8 C 52 % 1023,3 hPa - 0,0 km/h (0 Bft) - - - - 8,7 C 10,8 C 0,0 km/h (0 Bft)
_ Max-Heure 13:00 09:00 00:10 13:30 12:20 - - 13:30 13:30 11:40 13:00 12:50
Maximum _ 23,6 C 90 % 1025,5 hPa 0,0 mm 11,5 km/h
NE (2 Bft)
- - 0 min 0 W/m 13,9 C 23,6 C 18,7 km/h
N (3 Bft)
Moyenne _ 16,1 C 76 % 1024,3 hPa #0,0 mm 1,8 km/h (1 Bft) N-NE - #0 min. 0 W/m 11,6 C 16,1 C 3,5 km/h (1 Bft)
Saint Bonnet de Bellac- Haute Vienne - France